Regional Weather Roundup
Issued by NWS

Home | Current Version | Previous Version | Text Only | Print | Product List | Glossary On
Versions: 1 2 3 4 5 6 7 8 9 10 11 12 13 14 15 16 17 18 19 20 21 22 23 24 25 26 27
000
ASUS45 KBOU 201607
RWRCO

WEATHER ROUNDUP FOR COLORADO
NATIONAL WEATHER SERVICE DENVER/BOULDER CO
900 AM MST FRI JAN 20 2017

NOTE: "FAIR" INDICATES FEW OR NO CLOUDS BELOW 12000 FEET WITH NO
SIGNIFICANT WEATHER AND/OR OBSTRUCTIONS TO VISIBILITY.

COZ001>005-013-030-031-201700-
...NORTHWEST COLORADO...

CITY           SKY/WX    TMP DP  RH WIND       PRES   REMARKS
CRAIG          LGT SNOW  27  23  85 W7        29.58R FOG     WCI  19
HAYDEN         FAIR      25  21  86 W8        29.56R WCI  16
MEEKER         FLURRIES  24  22  91 CALM      29.58R
MOUNT WERNER   NOT AVBL
STEAMBOAT SPGS CLOUDY    24  22  94 CALM      29.55R
WALDEN           N/A     21  16  79 CALM      29.51S
$$

COZ006>008-011-201700-
...WEST CENTRAL VALLEYS...

CITY           SKY/WX    TMP DP  RH WIND       PRES   REMARKS
GRAND JUNCTION SNOW      32  32 100 CALM      29.61S VSB 1/2
MONTROSE       CLOUDY    31  28  89 CALM      29.63R
EAGLE          LGT SNOW  28  27  93 CALM      29.57R
RIFLE          LGT SNOW  31  30  96 CALM      29.59R FOG
DELTA          CLOUDY    34  33  97 CALM      29.63R VSB 3/4
NUCLA          CLOUDY    32  28  86 S9        29.68S WCI  24
$$

COZ017>023-064>068-201700-
...SOUTHWEST COLORADO...

CITY           SKY/WX    TMP DP  RH WIND       PRES   REMARKS
DURANGO        LGT SNOW  27  23  85 SW12      29.69R FOG     WCI  17
CORTEZ         LGT SNOW  31  28  89 S10       29.70R FOG     WCI  22
PAGOSA SPRINGS LGT SNOW  26  24  93 S3        29.68R
TELLURIDE      CLOUDY    22  18  83 CALM      29.63R
WOLF CREEK PAS CLOUDY     9   7  92 S20G29    29.60S WCI -11
$$

COZ009-010-012-014-032>034-037-058>063-201700-
...CENTRAL COLORADO...

CITY           SKY/WX    TMP DP  RH WIND       PRES   REMARKS
ASPEN          FLURRIES  26  24  92 CALM      29.53R
BUENA VISTA    CLOUDY    18  15  86 W6        29.51R WCI  10
COPPER MTN     LGT SNOW  19  12  73 MISG      29.49R VSB 1
BERTHOUD PASS  NOT AVBL
COTTONWOOD PAS CLOUDY    27  18  69 NW8       29.49R WCI  18
GUNNISON       LGT SNOW  12   9  87 S3        29.61R FOG
KREMMLING      CLOUDY    21  18  86 CALM      29.56R
LEADVILLE      LGT SNOW  20  16  84 CALM      29.48S VSB 3/4
MONARCH PASS   CLOUDY    12   9  85 MISG      29.56S
SALIDA         FAIR      32  17  52 SW18G26   29.57S WCI  21
SUNLIGHT       SNOW      18  14  86 W9G22     29.57R VSB 1/4 WCI   6
WILKERSON PASS CLOUDY    18  14  86 N6        29.50R WCI   9
$$

COZ069>075-201700-
...SAN LUIS VALLEY/SANGRE DE CRISTO MOUNTAINS...

CITY           SKY/WX    TMP DP  RH WIND       PRES   REMARKS
ALAMOSA        CLOUDY    15  14  95 SW6       29.59R WCI   6
LA VETA PASS   LGT SNOW  18  14  86 NE31G46   29.48R WCI  -2
SAGUACHE       PTSUNNY   21  19  93 CALM      29.57S
$$

COZ035-036-038>040-201700-
...NORTHERN COLORADO FRONT RANGE...

CITY           SKY/WX    TMP DP  RH WIND       PRES   REMARKS
DENVER INTL AP FLURRIES  36  29  75 NW9       29.47R
DMNS CITY PARK   N/A     38  28  68 N3G14     29.48R
AURORA         CLOUDY    35  29  79 SW7       29.47R WCI  29
FRONT RANGE AP CLOUDY    37  30  75 S5        29.47S
ERIE MUNI ARPT CLOUDY    34  29  82 CALM      29.47S
BOULDER MUN AP CLOUDY    36  27  69 CALM      29.46S
CENTENNIAL     LGT SNOW  33  29  85 E8        29.47R FOG     WCI  26
BROOMFIELD     CLOUDY    37  27  65 CALM      29.47R
FORT COLLINS   FAIR      37  27  65 CALM      29.47R
LONGMONT       FAIR      37  29  73 CALM      29.49R
$$

COZ041-046-047-076>085-087-088-201700-
...PIKES PEAK/PALMER DIVIDE AND SOUTHERN FOOTHILLS...

CITY           SKY/WX    TMP DP  RH WIND       PRES   REMARKS
COLO. SPRINGS  LGT SNOW  34  28  79 NE9       29.47S WCI  27
A. F. ACADEMY  FLURRIES  33  29  83 N8        29.45R WCI  26
SCHRIEVER AFB  NOT AVBL
ELLICOTT       CLOUDY   N/A N/A N/A NE13G18   29.44S
FALCON         CLOUDY    31  30  94 N5        29.47R WCI  26
FORT CARSON    LGT SNOW  34  30  86 VRB3      29.48R
LIMON          CLOUDY    32  28  85 CALM      29.45F
MONUMENT HILL  LGT SNOW  28  28 100 NW7       29.48R WCI  21
TRINIDAD       FAIR      35  19  52 W16       29.46S WCI  25
$$

COZ042>045-048>051-090-091-201700-
...NORTHEAST COLORADO...

CITY           SKY/WX    TMP DP  RH WIND       PRES   REMARKS
GREELEY ARPT   FAIR      33  28  81 SE3       29.48S
AKRON          CLOUDY    31  25  78 W12       29.46S WCI  22
BURLINGTON     CLOUDY    33  30  88 NW9       29.44R WCI  25
WRAY           PTSUNNY   32  32 100 NW5       29.46F WCI  27
STERLING       CLOUDY    32  30  93 SW3       29.47R
HOLYOKE        FAIR      30  27  86 SW3       29.47R
FORT MORGAN    CLOUDY    33  29  85 NW3       29.48F
$$

COZ086-089-092>099-201700-
...SOUTHEAST COLORADO...

CITY           SKY/WX    TMP DP  RH WIND       PRES   REMARKS
PUEBLO         FAIR      40  32  73 N6        29.46F
LA JUNTA       PTSUNNY   37  31  78 W12       29.45R
LAMAR          CLOUDY    31  30  96 W3        29.45S
SPRINGFIELD      N/A     41  32  70 W13       29.45S
$$




USA.gov is the U.S. government's official web portal to all federal, state and local government web resources and services.